TimeCDT,TemperatureF,Dew PointF,Humidity,Sea Level PressureIn,VisibilityMPH,Wind Direction,Wind SpeedMPH,Gust SpeedMPH,PrecipitationIn,Events,Conditions,WindDirDegrees,DateUTC
12:15 AM,49.3,35.2,58,29.47,10.0,West,11.5,-,N/A,,Clear,280,2012-10-18 05:15:00
12:35 AM,47.7,35.6,63,29.47,10.0,West,9.2,-,N/A,,Clear,270,2012-10-18 05:35:00
12:55 AM,47.3,35.6,64,29.47,10.0,West,8.1,-,N/A,,Clear,260,2012-10-18 05:55:00
1:15 AM,47.3,35.2,63,29.47,10.0,WSW,9.2,-,N/A,,Clear,250,2012-10-18 06:15:00
1:35 AM,46.9,35.4,64,29.46,10.0,WSW,10.4,-,N/A,,Mostly Cloudy,250,2012-10-18 06:35:00
1:55 AM,46.9,35.2,64,29.46,10.0,WSW,9.2,-,N/A,,Overcast,250,2012-10-18 06:55:00
2:15 AM,48.0,34.9,60,29.45,10.0,WSW,10.4,-,N/A,,Overcast,240,2012-10-18 07:15:00
2:35 AM,48.6,34.0,57,29.45,10.0,WSW,10.4,-,N/A,,Overcast,250,2012-10-18 07:35:00
2:55 AM,48.7,34.0,57,29.45,10.0,WSW,10.4,-,N/A,,Overcast,240,2012-10-18 07:55:00
3:15 AM,48.4,34.2,58,29.44,10.0,WSW,9.2,-,N/A,,Overcast,250,2012-10-18 08:15:00
3:35 AM,49.1,33.1,54,29.44,10.0,West,10.4,-,N/A,,Overcast,260,2012-10-18 08:35:00
3:55 AM,49.3,31.8,51,29.43,10.0,West,13.8,17.3,N/A,,Overcast,260,2012-10-18 08:55:00
4:15 AM,49.3,31.1,50,29.43,10.0,West,12.7,-,N/A,,Overcast,260,2012-10-18 09:15:00
4:35 AM,49.1,31.3,50,29.43,10.0,West,10.4,-,N/A,,Overcast,260,2012-10-18 09:35:00
4:55 AM,48.7,30.7,50,29.42,10.0,WSW,11.5,-,N/A,,Overcast,250,2012-10-18 09:55:00
5:15 AM,48.6,30.7,50,29.42,10.0,West,11.5,-,N/A,,Overcast,260,2012-10-18 10:15:00
5:35 AM,48.4,30.9,51,29.42,10.0,West,9.2,-,N/A,,Overcast,260,2012-10-18 10:35:00
5:55 AM,48.4,31.1,51,29.42,10.0,WSW,8.1,-,N/A,,Overcast,250,2012-10-18 10:55:00
6:35 AM,48.2,30.0,49,29.42,10.0,WSW,10.4,-,N/A,,Overcast,250,2012-10-18 11:35:00
6:55 AM,48.2,29.8,49,29.41,10.0,WSW,11.5,-,N/A,,Overcast,250,2012-10-18 11:55:00
7:15 AM,47.8,29.3,49,29.41,10.0,WSW,13.8,-,N/A,,Overcast,250,2012-10-18 12:15:00
7:35 AM,48.0,28.9,48,29.41,10.0,WSW,15.0,20.7,N/A,,Overcast,250,2012-10-18 12:35:00
7:55 AM,48.7,30.6,50,29.41,10.0,West,20.7,26.5,N/A,,Overcast,280,2012-10-18 12:55:00
8:15 AM,48.2,32.0,54,29.42,10.0,West,10.4,-,N/A,,Overcast,260,2012-10-18 13:15:00
8:35 AM,48.4,29.8,49,29.42,10.0,West,15.0,23.0,N/A,,Overcast,270,2012-10-18 13:35:00
8:55 AM,47.7,32.2,55,29.43,10.0,West,20.7,32.2,N/A,Rain,Light Rain,280,2012-10-18 13:55:00
9:15 AM,46.8,35.8,66,29.43,10.0,West,20.7,26.5,N/A,,Overcast,270,2012-10-18 14:15:00
9:35 AM,44.8,38.3,78,29.43,5.0,West,17.3,24.2,N/A,,Drizzle,270,2012-10-18 14:35:00
9:55 AM,45.0,39.2,80,29.42,7.0,WSW,17.3,24.2,N/A,,Drizzle,250,2012-10-18 14:55:00
10:15 AM,45.5,39.2,79,29.42,7.0,WSW,18.4,26.5,N/A,Rain,Rain,250,2012-10-18 15:15:00
10:35 AM,45.0,38.8,79,29.42,7.0,West,21.9,32.2,N/A,,Drizzle,260,2012-10-18 15:35:00
10:55 AM,45.1,39.4,80,29.41,7.0,WSW,21.9,27.6,N/A,Rain,Rain,250,2012-10-18 15:55:00
11:15 AM,45.5,39.7,80,29.41,5.0,West,18.4,26.5,N/A,Rain,Rain,260,2012-10-18 16:15:00
11:35 AM,45.1,39.7,81,29.41,5.0,West,19.6,33.4,N/A,Rain,Light Rain,260,2012-10-18 16:35:00
11:55 AM,45.7,40.8,83,29.41,5.0,West,19.6,27.6,0.01,Rain,Rain,260,2012-10-18 16:55:00
12:15 PM,45.7,41.0,84,29.41,5.0,West,19.6,26.5,0.01,Rain,Rain,260,2012-10-18 17:15:00
12:35 PM,46.4,41.4,83,29.41,5.0,West,23.0,31.1,0.01,,Drizzle,260,2012-10-18 17:35:00
12:55 PM,46.4,41.2,82,29.40,5.0,WSW,19.6,28.8,0.02,,Drizzle,250,2012-10-18 17:55:00
1:15 PM,46.8,41.5,82,29.40,5.0,WSW,24.2,29.9,0.01,,Drizzle,250,2012-10-18 18:15:00
1:35 PM,46.2,41.0,82,29.40,4.0,West,21.9,35.7,0.01,,Drizzle,260,2012-10-18 18:35:00
1:55 PM,46.0,41.0,83,29.40,5.0,WSW,25.3,32.2,0.02,Rain,Rain,250,2012-10-18 18:55:00
2:15 PM,45.5,40.8,84,29.41,4.0,West,25.3,34.5,N/A,Rain,Rain,260,2012-10-18 19:15:00
2:35 PM,45.5,41.0,84,29.41,4.0,West,20.7,27.6,0.01,,Drizzle,260,2012-10-18 19:35:00
2:55 PM,45.5,41.2,85,29.40,5.0,WSW,23.0,26.5,0.02,Rain,Light Rain,250,2012-10-18 19:55:00
3:15 PM,45.5,41.2,85,29.41,7.0,WSW,24.2,31.1,0.01,Rain,Light Rain,250,2012-10-18 20:15:00
3:35 PM,45.1,41.0,85,29.41,7.0,WSW,17.3,26.5,0.01,Rain,Light Rain,250,2012-10-18 20:35:00
3:55 PM,44.8,40.8,86,29.41,5.0,WSW,19.6,32.2,0.01,,Drizzle,250,2012-10-18 20:55:00
4:15 PM,44.8,41.0,87,29.41,5.0,WSW,19.6,26.5,N/A,Rain,Rain,240,2012-10-18 21:15:00
4:35 PM,45.0,41.0,86,29.40,7.0,WSW,19.6,27.6,N/A,,Drizzle,250,2012-10-18 21:35:00
4:55 PM,45.0,41.4,87,29.40,5.0,WSW,18.4,26.5,0.01,Rain,Light Rain,240,2012-10-18 21:55:00
5:15 PM,45.1,41.4,87,29.40,7.0,WSW,18.4,26.5,N/A,Rain,Light Rain,240,2012-10-18 22:15:00
5:35 PM,45.1,41.5,87,29.40,7.0,WSW,18.4,25.3,0.01,Rain,Light Rain,240,2012-10-18 22:35:00
5:55 PM,45.1,41.5,87,29.40,7.0,WSW,20.7,24.2,0.01,Rain,Light Rain,250,2012-10-18 22:55:00
6:15 PM,44.8,41.4,88,29.40,7.0,WSW,16.1,20.7,N/A,Rain,Light Rain,240,2012-10-18 23:15:00
6:35 PM,44.8,41.7,89,29.40,7.0,WSW,16.1,-,N/A,Rain,Rain,240,2012-10-18 23:35:00
6:55 PM,44.8,41.9,90,29.40,7.0,WSW,17.3,23.0,N/A,Rain,Light Rain,240,2012-10-18 23:55:00
7:15 PM,44.8,41.9,90,29.40,10.0,WSW,13.8,21.9,0.01,,Drizzle,250,2012-10-19 00:15:00
7:35 PM,44.8,41.9,90,29.40,10.0,WSW,11.5,17.3,0.01,Rain,Light Rain,250,2012-10-19 00:35:00
7:55 PM,44.8,41.9,90,29.40,10.0,WSW,11.5,-,0.02,Rain,Light Rain,250,2012-10-19 00:55:00
8:15 PM,44.8,42.1,90,29.40,10.0,WSW,11.5,17.3,N/A,Rain,Light Rain,250,2012-10-19 01:15:00
8:35 PM,44.8,42.3,91,29.40,7.0,West,9.2,-,0.01,Rain,Light Rain,260,2012-10-19 01:35:00
8:55 PM,45.0,42.6,91,29.40,10.0,West,11.5,-,0.02,Rain,Light Rain,260,2012-10-19 01:55:00
9:15 PM,45.5,42.8,90,29.40,4.0,West,10.4,-,N/A,Rain,Light Rain,260,2012-10-19 02:15:00
9:35 PM,45.5,43.2,92,29.41,10.0,West,10.4,-,N/A,,Overcast,270,2012-10-19 02:35:00
9:55 PM,45.9,43.7,92,29.40,3.0,West,9.2,-,N/A,,Drizzle,260,2012-10-19 02:55:00
10:15 PM,46.4,44.2,92,29.40,7.0,West,12.7,17.3,N/A,,Overcast,270,2012-10-19 03:15:00
10:35 PM,46.8,44.6,92,29.41,4.0,West,13.8,17.3,N/A,Rain,Light Rain,270,2012-10-19 03:35:00
10:55 PM,47.3,45.0,92,29.41,7.0,WNW,15.0,-,N/A,,Overcast,290,2012-10-19 03:55:00